When you browse on this site, cookies collect data to enhance your experience and personalize the content and advertising you see.
Visit our Privacy Policy to learn more. By continuing to use the site, you agree to this use of cookies and data.
  • In Romania
  • List of Countries
  • For 7 days
  • Water Temperature
  • Satellite Maps
  • Weather Map
  • Weather Widgets
  • user-avatar
    Login

    Hourly Weather Acs

    Today, 24 July, Wednesday

    Time Temperature Precipitation Wind Pressure Humidity
    00:00 +20°C° 0 mm 2 mps 754 mmHg 81%
    01:00 +19°C° 0 mm 2 mps 754 mmHg 83%
    02:00 +20°C° 0 mm 1 mps 753 mmHg 86%
    03:00 +19°C° 0 mm 1 mps 753 mmHg 89%
    04:00 +19°C° 0 mm 1 mps 753 mmHg 91%
    05:00 +20°C° 0 mm 1 mps 753 mmHg 86%
    06:00 +22°C° 0 mm 1 mps 753 mmHg 81%
    07:00 +23°C° 0 mm 1 mps 753 mmHg 76%
    08:00 +25°C° 0 mm 2 mps 753 mmHg 70%
    09:00 +27°C° 0 mm 2 mps 753 mmHg 63%
    10:00 +29°C° 0 mm 3 mps 753 mmHg 56%
    11:00 +30°C° 0 mm 3 mps 753 mmHg 52%
    12:00 +31°C° 0 mm 3 mps 753 mmHg 48%
    13:00 +33°C° 0 mm 3 mps 752 mmHg 43%
    14:00 +33°C° 0 mm 3 mps 752 mmHg 43%
    15:00 +33°C° 0 mm 3 mps 752 mmHg 42%
    16:00 +33°C° 0 mm 4 mps 752 mmHg 42%
    17:00 +31°C° 0 mm 3 mps 751 mmHg 48%
    18:00 +29°C° 0 mm 3 mps 751 mmHg 55%
    19:00 +27°C° 0 mm 2 mps 751 mmHg 61%
    20:00 +26°C° 0 mm 2 mps 752 mmHg 65%
    21:00 +25°C° 0 mm 2 mps 752 mmHg 68%
    22:00 +23°C° 0 mm 2 mps 752 mmHg 71%
    23:00 +21°C° 0 mm 2 mps 752 mmHg 77%

    Tomorrow, 25 July, Thursday

    Time Temperature Precipitation Wind Pressure Humidity
    00:00 +22°C° 0 mm 1 mps 752 mmHg 82%
    01:00 +21°C° 0 mm 1 mps 752 mmHg 88%
    02:00 +21°C° 0 mm 1 mps 752 mmHg 89%
    03:00 +20°C° 0 mm 1 mps 753 mmHg 91%
    04:00 +20°C° 0 mm 1 mps 753 mmHg 92%
    05:00 +21°C° 0 mm 1 mps 753 mmHg 86%
    06:00 +23°C° 0 mm 1 mps 753 mmHg 80%
    07:00 +24°C° 0 mm 1 mps 753 mmHg 75%
    08:00 +26°C° 0 mm 1 mps 753 mmHg 68%
    09:00 +28°C° 0 mm 1 mps 753 mmHg 62%
    10:00 +29°C° 0 mm 1 mps 753 mmHg 56%
    11:00 +30°C° 0 mm 1 mps 753 mmHg 51%
    12:00 +31°C° 0 mm 1 mps 752 mmHg 46%
    13:00 +32°C° 0 mm 1 mps 752 mmHg 42%
    14:00 +33°C° 0 mm 1 mps 752 mmHg 40%
    15:00 +33°C° 0 mm 1 mps 751 mmHg 39%
    16:00 +33°C° 0 mm 1 mps 751 mmHg 37%
    17:00 +31°C° 0 mm 1 mps 751 mmHg 43%
    18:00 +29°C° 0 mm 1 mps 751 mmHg 49%
    19:00 +28°C° 0 mm 1 mps 751 mmHg 54%
    20:00 +26°C° 0 mm 1 mps 751 mmHg 57%
    21:00 +25°C° 0 mm 1 mps 751 mmHg 60%
    22:00 +24°C° 0 mm 1 mps 751 mmHg 62%
    23:00 +23°C° 0 mm 1 mps 751 mmHg 64%

    Day after tomorrow, 26 July, Friday

    Time Temperature Precipitation Wind Pressure Humidity
    00:00 +23°C° 0 mm 1 mps 750 mmHg 65%
    01:00 +23°C° 0 mm 1 mps 750 mmHg 67%
    02:00 +22°C° 0 mm 1 mps 750 mmHg 69%
    03:00 +21°C° 0 mm 1 mps 750 mmHg 70%
    04:00 +21°C° 0 mm 1 mps 749 mmHg 72%
    05:00 +22°C° 0 mm 1 mps 749 mmHg 69%
    06:00 +24°C° 0 mm 1 mps 749 mmHg 65%
    07:00 +25°C° 0 mm 1 mps 749 mmHg 62%
    08:00 +27°C° 0 mm 1 mps 749 mmHg 57%
    09:00 +29°C° 0 mm 2 mps 749 mmHg 51%
    10:00 +30°C° 0 mm 2 mps 749 mmHg 46%
    11:00 +31°C° 0 mm 3 mps 748 mmHg 43%
    12:00 +33°C° 0 mm 3 mps 748 mmHg 39%
    13:00 +34°C° 0 mm 3 mps 747 mmHg 36%
    14:00 +34°C° 0 mm 3 mps 747 mmHg 36%
    15:00 +34°C° 0 mm 4 mps 746 mmHg 36%
    16:00 +33°C° 0 mm 4 mps 746 mmHg 37%
    17:00 +31°C° 0 mm 3 mps 746 mmHg 43%
    18:00 +29°C° 0 mm 3 mps 746 mmHg 49%
    19:00 +27°C° 0 mm 3 mps 746 mmHg 55%
    20:00 +25°C° 0 mm 3 mps 746 mmHg 60%
    21:00 +24°C° 0 mm 3 mps 746 mmHg 66%
    22:00 +21°C° 0 mm 2 mps 746 mmHg 71%
    23:00 +21°C° 0 mm 2 mps 746 mmHg 74%

    27 July, Saturday

    Time Temperature Precipitation Wind Pressure Humidity
    00:00 +20°C° 0 mm 2 mps 746 mmHg 77%
    01:00 +20°C° 0 mm 2 mps 746 mmHg 81%
    02:00 +19°C° 0 mm 2 mps 746 mmHg 82%
    03:00 +19°C° 0 mm 2 mps 745 mmHg 84%
    04:00 +18°C° 0 mm 2 mps 745 mmHg 85%
    05:00 +20°C° 0 mm 2 mps 745 mmHg 79%
    06:00 +21°C° 0 mm 2 mps 745 mmHg 73%
    07:00 +24°C° 0 mm 2 mps 745 mmHg 67%
    08:00 +25°C° 0 mm 2 mps 745 mmHg 61%
    09:00 +26°C° 0 mm 3 mps 745 mmHg 56%
    10:00 +28°C° 0 mm 3 mps 745 mmHg 51%
    11:00 +29°C° 0.1 mm 3 mps 745 mmHg 49%
    12:00 +29°C° 0.1 mm 3 mps 745 mmHg 47%
    13:00 +30°C° 0.1 mm 3 mps 744 mmHg 46%
    14:00 +30°C° 0 mm 2 mps 744 mmHg 44%
    15:00 +30°C° 0 mm 2 mps 744 mmHg 43%
    16:00 +31°C° 0 mm 2 mps 743 mmHg 42%
    17:00 +29°C° 0 mm 2 mps 743 mmHg 47%
    18:00 +28°C° 0 mm 2 mps 743 mmHg 52%
    19:00 +26°C° 0 mm 2 mps 743 mmHg 57%
    20:00 +25°C° 0 mm 2 mps 743 mmHg 59%
    21:00 +24°C° 0 mm 2 mps 743 mmHg 61%
    22:00 +23°C° 0 mm 2 mps 744 mmHg 64%
    23:00 +21°C° 0 mm 2 mps 744 mmHg 66%

    28 July, Sunday

    Time Temperature Precipitation Wind Pressure Humidity
    00:00 +20°C° 0 mm 2 mps 743 mmHg 68%
    01:00 +20°C° 0 mm 2 mps 743 mmHg 70%
    02:00 +19°C° 0 mm 2 mps 743 mmHg 71%
    03:00 +20°C° 0 mm 1 mps 743 mmHg 73%
    04:00 +19°C° 0 mm 1 mps 743 mmHg 75%
    05:00 +20°C° 0 mm 1 mps 743 mmHg 71%
    06:00 +22°C° 0 mm 1 mps 743 mmHg 66%
    07:00 +23°C° 0 mm 1 mps 743 mmHg 62%
    08:00 +25°C° 0 mm 1 mps 743 mmHg 57%
    09:00 +27°C° 0 mm 1 mps 743 mmHg 52%
    10:00 +28°C° 0 mm 1 mps 744 mmHg 47%
    11:00 +29°C° 0 mm 1 mps 743 mmHg 45%
    12:00 +30°C° 0 mm 1 mps 743 mmHg 44%
    13:00 +30°C° 0 mm 1 mps 743 mmHg 42%
    14:00 +30°C° 0 mm 1 mps 743 mmHg 44%
    15:00 +30°C° 0 mm 1 mps 743 mmHg 47%
    16:00 +29°C° 0 mm 2 mps 743 mmHg 49%
    17:00 +28°C° 0 mm 2 mps 743 mmHg 52%
    18:00 +27°C° 0 mm 1 mps 743 mmHg 55%
    19:00 +26°C° 0 mm 1 mps 743 mmHg 57%
    20:00 +25°C° 0 mm 2 mps 743 mmHg 60%
    21:00 +24°C° 0 mm 3 mps 744 mmHg 62%
    22:00 +22°C° 0 mm 3 mps 744 mmHg 65%
    23:00 +22°C° 0 mm 3 mps 744 mmHg 68%

    29 July, Monday

    Time Temperature Precipitation Wind Pressure Humidity
    00:00 +21°C° 0 mm 3 mps 745 mmHg 70%
    01:00 +20°C° 0 mm 2 mps 745 mmHg 73%
    02:00 +19°C° 0 mm 2 mps 745 mmHg 77%
    03:00 +19°C° 0 mm 2 mps 745 mmHg 80%
    04:00 +18°C° 0 mm 2 mps 745 mmHg 84%
    05:00 +19°C° 0 mm 2 mps 745 mmHg 78%
    06:00 +21°C° 0 mm 2 mps 746 mmHg 72%
    07:00 +24°C° 0 mm 3 mps 746 mmHg 67%
    08:00 +26°C° 0 mm 3 mps 746 mmHg 59%
    09:00 +28°C° 0 mm 3 mps 746 mmHg 52%
    10:00 +30°C° 0 mm 3 mps 746 mmHg 44%
    11:00 +32°C° 0 mm 4 mps 746 mmHg 41%
    12:00 +33°C° 0 mm 4 mps 746 mmHg 37%
    13:00 +34°C° 0 mm 4 mps 746 mmHg 34%
    14:00 +34°C° 0 mm 4 mps 746 mmHg 34%
    15:00 +35°C° 0 mm 4 mps 746 mmHg 34%
    16:00 +35°C° 0 mm 4 mps 746 mmHg 34%
    17:00 +33°C° 0 mm 3 mps 746 mmHg 40%
    18:00 +31°C° 0 mm 3 mps 746 mmHg 46%
    19:00 +29°C° 0 mm 3 mps 746 mmHg 52%
    20:00 +28°C° 0.1 mm 3 mps 747 mmHg 56%
    21:00 +26°C° 0.1 mm 3 mps 747 mmHg 61%
    22:00 +25°C° 0.1 mm 3 mps 748 mmHg 65%
    23:00 +24°C° 0 mm 3 mps 748 mmHg 68%
    Show more